owner,sensor,date,latitude,longitude,vertical_datum,sea_water_temperature,qcFlag
BP,ioos:station:wmo:42369:2,2021-01-01T00:19:00Z,27.2132,-90.2797,448.7,9.2,11113222
BP,ioos:station:wmo:42369:2,2021-01-01T00:39:00Z,27.2130,-90.2795,449.2,9.2,11113222
BP,ioos:station:wmo:42369:2,2021-01-01T00:59:00Z,27.2129,-90.2792,448.9,9.1,11113222
BP,ioos:station:wmo:42369:2,2021-01-01T01:19:00Z,27.2129,-90.2790,449.0,9.1,11113222
BP,ioos:station:wmo:42369:2,2021-01-01T01:39:00Z,27.2128,-90.2787,449.0,9.1,11113222
BP,ioos:station:wmo:42369:2,2021-01-01T01:59:00Z,27.2127,-90.2785,448.4,9.1,11113222
BP,ioos:station:wmo:42369:2,2021-01-01T02:19:00Z,27.2125,-90.2783,448.5,9.2,11113222
BP,ioos:station:wmo:42369:2,2021-01-01T02:39:00Z,27.2124,-90.2782,448.3,9.2,11113222
BP,ioos:station:wmo:42369:2,2021-01-01T02:59:00Z,27.2123,-90.2779,448.8,9.1,11113222
BP,ioos:station:wmo:42369:2,2021-01-01T03:19:00Z,27.2123,-90.2779,447.7,9.2,11113222
BP,ioos:station:wmo:42369:2,2021-01-01T03:39:00Z,27.2123,-90.2779,448.1,9.1,11113222
BP,ioos:station:wmo:42369:2,2021-01-01T03:59:00Z,27.2123,-90.2779,448.4,9.2,11113222
BP,ioos:station:wmo:42369:2,2021-01-01T04:19:00Z,27.2122,-90.2780,448.4,9.1,11113222
BP,ioos:station:wmo:42369:2,2021-01-01T04:39:00Z,27.2121,-90.2779,447.3,9.0,11113222
BP,ioos:station:wmo:42369:2,2021-01-01T04:59:00Z,27.2120,-90.2778,447.5,9.1,11113222
BP,ioos:station:wmo:42369:2,2021-01-01T05:19:00Z,27.2114,-90.2771,446.9,9.1,11113222
BP,ioos:station:wmo:42369:2,2021-01-01T05:39:00Z,27.2095,-90.2753,448.1,9.0,11113222
BP,ioos:station:wmo:42369:2,2021-01-01T05:59:00Z,27.2077,-90.2743,448.5,9.0,11113222
BP,ioos:station:wmo:42369:2,2021-01-01T06:19:00Z,27.2061,-90.2739,448.5,8.9,11113222
BP,ioos:station:wmo:42369:2,2021-01-01T06:39:00Z,27.2047,-90.2740,448.2,8.8,11113222
BP,ioos:station:wmo:42369:2,2021-01-01T06:59:00Z,27.2037,-90.2744,448.1,8.7,11113222
BP,ioos:station:wmo:42369:2,2021-01-01T07:19:00Z,27.2027,-90.2749,448.0,8.7,11113222
BP,ioos:station:wmo:42369:2,2021-01-01T07:39:00Z,27.2022,-90.2752,447.8,8.8,11113222
BP,ioos:station:wmo:42369:2,2021-01-01T07:59:00Z,27.2016,-90.2756,447.5,8.8,11113222
BP,ioos:station:wmo:42369:2,2021-01-01T08:19:00Z,27.2011,-90.2761,447.9,8.9,11113222
BP,ioos:station:wmo:42369:2,2021-01-01T08:39:00Z,27.2006,-90.2765,447.5,8.9,11113222
BP,ioos:station:wmo:42369:2,2021-01-01T08:59:00Z,27.2003,-90.2771,447.1,9.0,11113222
BP,ioos:station:wmo:42369:2,2021-01-01T09:19:00Z,27.2001,-90.2777,447.2,8.9,11113222
BP,ioos:station:wmo:42369:2,2021-01-01T09:39:00Z,27.1997,-90.2782,446.8,9.0,11113222
BP,ioos:station:wmo:42369:2,2021-01-01T09:59:00Z,27.1995,-90.2787,447.0,9.0,11113222
BP,ioos:station:wmo:42369:2,2021-01-01T10:19:00Z,27.1993,-90.2792,446.5,9.0,11113222
BP,ioos:station:wmo:42369:2,2021-01-01T10:39:00Z,27.1992,-90.2796,446.7,8.9,11113222
BP,ioos:station:wmo:42369:2,2021-01-01T10:59:00Z,27.1992,-90.2798,446.8,9.0,11113222
BP,ioos:station:wmo:42369:2,2021-01-01T11:19:00Z,27.1991,-90.2802,446.5,9.1,11113222
BP,ioos:station:wmo:42369:2,2021-01-01T11:39:00Z,27.1991,-90.2806,445.7,9.1,11113222
BP,ioos:station:wmo:42369:2,2021-01-01T11:59:00Z,27.1991,-90.2810,446.4,9.1,11113222
BP,ioos:station:wmo:42369:2,2021-01-01T12:19:00Z,27.1990,-90.2813,445.5,9.1,11113222
BP,ioos:station:wmo:42369:2,2021-01-01T12:39:00Z,27.1990,-90.2818,446.0,9.2,11113222
BP,ioos:station:wmo:42369:2,2021-01-01T12:59:00Z,27.1990,-90.2823,445.7,9.2,11113222
BP,ioos:station:wmo:42369:2,2021-01-01T13:19:00Z,27.1992,-90.2827,445.7,9.3,11113222
BP,ioos:station:wmo:42369:2,2021-01-01T13:39:00Z,27.1992,-90.2832,445.8,9.4,11113222
BP,ioos:station:wmo:42369:2,2021-01-01T13:59:00Z,27.1993,-90.2837,445.6,9.5,11113222
BP,ioos:station:wmo:42369:2,2021-01-01T14:19:00Z,27.1993,-90.2840,445.7,9.5,11113222
BP,ioos:station:wmo:42369:2,2021-01-01T14:39:00Z,27.1995,-90.2843,445.4,9.5,11113222
BP,ioos:station:wmo:42369:2,2021-01-01T14:59:00Z,27.1995,-90.2844,445.4,9.5,11113222
BP,ioos:station:wmo:42369:2,2021-01-01T15:19:00Z,27.1996,-90.2846,445.4,9.5,11113222
BP,ioos:station:wmo:42369:2,2021-01-01T15:39:00Z,27.1997,-90.2850,445.6,9.5,11113222
BP,ioos:station:wmo:42369:2,2021-01-01T15:59:00Z,27.1998,-90.2854,445.4,9.5,11113222
BP,ioos:station:wmo:42369:2,2021-01-01T16:19:00Z,27.2000,-90.2858,445.7,9.6,11113222
BP,ioos:station:wmo:42369:2,2021-01-01T16:39:00Z,27.2000,-90.2859,445.4,9.7,11113222
BP,ioos:station:wmo:42369:2,2021-01-01T16:59:00Z,27.2000,-90.2859,446.0,9.7,11113222
BP,ioos:station:wmo:42369:2,2021-01-01T17:19:00Z,27.2000,-90.2858,445.7,9.8,11113222
BP,ioos:station:wmo:42369:2,2021-01-01T17:39:00Z,27.1998,-90.2856,445.6,9.7,11113222
BP,ioos:station:wmo:42369:2,2021-01-01T17:59:00Z,27.1997,-90.2856,445.7,9.7,11113222
BP,ioos:station:wmo:42369:2,2021-01-01T18:19:00Z,27.1998,-90.2856,445.8,9.7,11113222
BP,ioos:station:wmo:42369:2,2021-01-01T18:39:00Z,27.1999,-90.2856,446.1,9.7,11113222
BP,ioos:station:wmo:42369:2,2021-01-01T18:59:00Z,27.2000,-90.2857,445.7,9.6,11113222
BP,ioos:station:wmo:42369:2,2021-01-01T19:19:00Z,27.2002,-90.2858,445.2,9.6,11113222
BP,ioos:station:wmo:42369:2,2021-01-01T19:39:00Z,27.2004,-90.2859,445.8,9.6,11113222
BP,ioos:station:wmo:42369:2,2021-01-01T19:59:00Z,27.2006,-90.2860,445.1,9.6,11113222
BP,ioos:station:wmo:42369:2,2021-01-01T20:19:00Z,27.2007,-90.2860,445.6,9.5,11113222
BP,ioos:station:wmo:42369:2,2021-01-01T20:39:00Z,27.2007,-90.2862,445.7,9.6,11113222
BP,ioos:station:wmo:42369:2,2021-01-01T20:59:00Z,27.2009,-90.2863,445.8,9.6,11113222
BP,ioos:station:wmo:42369:2,2021-01-01T21:19:00Z,27.2010,-90.2863,445.6,9.5,11113222
BP,ioos:station:wmo:42369:2,2021-01-01T21:39:00Z,27.2012,-90.2863,446.0,9.4,11113222
BP,ioos:station:wmo:42369:2,2021-01-01T21:59:00Z,27.2013,-90.2862,445.7,9.3,11113222
BP,ioos:station:wmo:42369:2,2021-01-01T22:19:00Z,27.2013,-90.2862,446.1,9.3,11113222
BP,ioos:station:wmo:42369:2,2021-01-01T22:39:00Z,27.2013,-90.2861,445.4,9.3,11113222
BP,ioos:station:wmo:42369:2,2021-01-01T22:59:00Z,27.2013,-90.2860,445.5,9.3,11113222
BP,ioos:station:wmo:42369:2,2021-01-01T23:19:00Z,27.2011,-90.2858,445.9,9.2,11113222
BP,ioos:station:wmo:42369:2,2021-01-01T23:39:00Z,27.2009,-90.2857,446.1,9.2,11113222
BP,ioos:station:wmo:42369:2,2021-01-01T23:59:00Z,27.2008,-90.2856,445.4,9.2,11113222
BP,ioos:station:wmo:42369:2,2021-01-02T00:19:00Z,27.2007,-90.2853,445.5,9.2,11113222
BP,ioos:station:wmo:42369:2,2021-01-02T00:39:00Z,27.2005,-90.2851,446.0,9.1,11113222
BP,ioos:station:wmo:42369:2,2021-01-02T00:59:00Z,27.2004,-90.2849,446.3,9.2,11113222
BP,ioos:station:wmo:42369:2,2021-01-02T01:19:00Z,27.2003,-90.2847,446.4,9.1,11113222
BP,ioos:station:wmo:42369:2,2021-01-02T01:39:00Z,27.2002,-90.2844,446.0,9.2,11113222
BP,ioos:station:wmo:42369:2,2021-01-02T01:59:00Z,27.2000,-90.2841,446.0,9.2,11113222
BP,ioos:station:wmo:42369:2,2021-01-02T02:19:00Z,27.1998,-90.2837,446.0,9.2,11113222
BP,ioos:station:wmo:42369:2,2021-01-02T02:39:00Z,27.1996,-90.2834,446.7,9.2,11113222
BP,ioos:station:wmo:42369:2,2021-01-02T02:59:00Z,27.1995,-90.2832,446.2,9.2,11113222
BP,ioos:station:wmo:42369:2,2021-01-02T03:19:00Z,27.1995,-90.2830,446.6,9.1,11113222
BP,ioos:station:wmo:42369:2,2021-01-02T03:39:00Z,27.1995,-90.2828,446.2,9.1,11113222
BP,ioos:station:wmo:42369:2,2021-01-02T03:59:00Z,27.1994,-90.2827,446.7,9.1,11113222
BP,ioos:station:wmo:42369:2,2021-01-02T04:19:00Z,27.1994,-90.2826,446.3,9.1,11113222
BP,ioos:station:wmo:42369:2,2021-01-02T04:39:00Z,27.1994,-90.2825,446.5,9.1,11113222
BP,ioos:station:wmo:42369:2,2021-01-02T04:59:00Z,27.1994,-90.2826,446.2,9.0,11113222
BP,ioos:station:wmo:42369:2,2021-01-02T05:19:00Z,27.1993,-90.2827,446.4,9.0,11113222
BP,ioos:station:wmo:42369:2,2021-01-02T05:39:00Z,27.1992,-90.2827,446.5,8.9,11113222
BP,ioos:station:wmo:42369:2,2021-01-02T05:59:00Z,27.1992,-90.2827,446.4,8.9,11113222
BP,ioos:station:wmo:42369:2,2021-01-02T06:19:00Z,27.1991,-90.2826,446.3,8.8,11113222
BP,ioos:station:wmo:42369:2,2021-01-02T06:39:00Z,27.1990,-90.2826,446.6,8.9,11113222
BP,ioos:station:wmo:42369:2,2021-01-02T06:59:00Z,27.1990,-90.2826,447.0,8.9,11113222
BP,ioos:station:wmo:42369:2,2021-01-02T07:19:00Z,27.1990,-90.2826,446.8,9.0,11113222
BP,ioos:station:wmo:42369:2,2021-01-02T07:39:00Z,27.1990,-90.2826,446.3,9.0,11113222
BP,ioos:station:wmo:42369:2,2021-01-02T07:59:00Z,27.1989,-90.2826,446.4,9.0,11113222
BP,ioos:station:wmo:42369:2,2021-01-02T08:19:00Z,27.1988,-90.2826,446.4,8.9,11113222
BP,ioos:station:wmo:42369:2,2021-01-02T08:39:00Z,27.1988,-90.2827,447.2,9.0,11113222
BP,ioos:station:wmo:42369:2,2021-01-02T08:59:00Z,27.1987,-90.2827,446.9,9.0,11113222
BP,ioos:station:wmo:42369:2,2021-01-02T09:19:00Z,27.1987,-90.2828,447.7,9.1,11113222
BP,ioos:station:wmo:42369:2,2021-01-02T09:39:00Z,27.1987,-90.2830,447.5,9.1,11113222
BP,ioos:station:wmo:42369:2,2021-01-02T09:59:00Z,27.1987,-90.2831,447.5,9.1,11113222
BP,ioos:station:wmo:42369:2,2021-01-02T10:19:00Z,27.1987,-90.2830,447.0,9.1,11113222
BP,ioos:station:wmo:42369:2,2021-01-02T10:39:00Z,27.1987,-90.2831,447.3,9.0,11113222
BP,ioos:station:wmo:42369:2,2021-01-02T10:59:00Z,27.1987,-90.2832,447.2,9.0,11113222
BP,ioos:station:wmo:42369:2,2021-01-02T11:19:00Z,27.1987,-90.2833,446.7,9.0,11113222
BP,ioos:station:wmo:42369:2,2021-01-02T11:39:00Z,27.1987,-90.2833,447.0,9.0,11113222
BP,ioos:station:wmo:42369:2,2021-01-02T11:59:00Z,27.1987,-90.2834,447.1,9.0,11113222
BP,ioos:station:wmo:42369:2,2021-01-02T12:19:00Z,27.1987,-90.2836,447.2,9.0,11113222
BP,ioos:station:wmo:42369:2,2021-01-02T12:39:00Z,27.1988,-90.2839,447.3,9.0,11113222
BP,ioos:station:wmo:42369:2,2021-01-02T12:59:00Z,27.1988,-90.2840,447.1,9.1,11113222
BP,ioos:station:wmo:42369:2,2021-01-02T13:19:00Z,27.1988,-90.2840,447.1,9.2,11113222
BP,ioos:station:wmo:42369:2,2021-01-02T13:39:00Z,27.1988,-90.2841,446.6,9.2,11113222
BP,ioos:station:wmo:42369:2,2021-01-02T13:59:00Z,27.1987,-90.2840,447.4,9.3,11113222
BP,ioos:station:wmo:42369:2,2021-01-02T14:19:00Z,27.1987,-90.2839,447.0,9.3,11113222
BP,ioos:station:wmo:42369:2,2021-01-02T14:39:00Z,27.1987,-90.2838,447.2,9.3,11113222
BP,ioos:station:wmo:42369:2,2021-01-02T14:59:00Z,27.1987,-90.2836,446.6,9.3,11113222
BP,ioos:station:wmo:42369:2,2021-01-02T15:19:00Z,27.1986,-90.2834,446.8,9.4,11113222
BP,ioos:station:wmo:42369:2,2021-01-02T15:39:00Z,27.1986,-90.2833,447.3,9.4,11113222
BP,ioos:station:wmo:42369:2,2021-01-02T15:59:00Z,27.1986,-90.2831,446.8,9.4,11113222
BP,ioos:station:wmo:42369:2,2021-01-02T16:19:00Z,27.1986,-90.2829,447.0,9.3,11113222
BP,ioos:station:wmo:42369:2,2021-01-02T16:39:00Z,27.1986,-90.2829,447.0,9.3,11113222
BP,ioos:station:wmo:42369:2,2021-01-02T16:59:00Z,27.1987,-90.2830,446.7,9.3,11113222
BP,ioos:station:wmo:42369:2,2021-01-02T17:19:00Z,27.1987,-90.2831,446.7,9.3,11113222
BP,ioos:station:wmo:42369:2,2021-01-02T17:39:00Z,27.1987,-90.2832,446.5,9.4,11113222
BP,ioos:station:wmo:42369:2,2021-01-02T17:59:00Z,27.1987,-90.2831,446.6,9.4,11113222
BP,ioos:station:wmo:42369:2,2021-01-02T18:19:00Z,27.1988,-90.2832,446.4,9.4,11113222
BP,ioos:station:wmo:42369:2,2021-01-02T18:39:00Z,27.1987,-90.2831,446.9,9.4,11113222
BP,ioos:station:wmo:42369:2,2021-01-02T18:59:00Z,27.1986,-90.2828,446.0,9.4,11113222
BP,ioos:station:wmo:42369:2,2021-01-02T19:19:00Z,27.1986,-90.2825,446.6,9.3,11113222
BP,ioos:station:wmo:42369:2,2021-01-02T19:39:00Z,27.1986,-90.2822,447.5,9.3,11113222
BP,ioos:station:wmo:42369:2,2021-01-02T19:59:00Z,27.1987,-90.2820,447.1,9.3,11113222
BP,ioos:station:wmo:42369:2,2021-01-02T20:19:00Z,27.1988,-90.2818,446.7,9.4,11113222
BP,ioos:station:wmo:42369:2,2021-01-02T20:39:00Z,27.1988,-90.2818,446.3,9.4,11113222
BP,ioos:station:wmo:42369:2,2021-01-02T20:59:00Z,27.1989,-90.2816,447.1,9.3,11113222
BP,ioos:station:wmo:42369:2,2021-01-02T21:19:00Z,27.1990,-90.2814,446.8,9.3,11113222
BP,ioos:station:wmo:42369:2,2021-01-02T21:39:00Z,27.1991,-90.2811,446.6,9.3,11113222
BP,ioos:station:wmo:42369:2,2021-01-02T21:59:00Z,27.1991,-90.2809,446.5,9.3,11113222
BP,ioos:station:wmo:42369:2,2021-01-02T22:19:00Z,27.1991,-90.2806,446.0,9.4,11113222
BP,ioos:station:wmo:42369:2,2021-01-02T22:39:00Z,27.1992,-90.2805,446.3,9.4,11113222
BP,ioos:station:wmo:42369:2,2021-01-02T22:59:00Z,27.1993,-90.2803,446.1,9.2,11113222
BP,ioos:station:wmo:42369:2,2021-01-02T23:19:00Z,27.1993,-90.2801,446.3,9.2,11113222
BP,ioos:station:wmo:42369:2,2021-01-02T23:39:00Z,27.1994,-90.2798,446.3,9.2,11113222
BP,ioos:station:wmo:42369:2,2021-01-02T23:59:00Z,27.1995,-90.2795,446.4,9.2,11113222
BP,ioos:station:wmo:42369:2,2021-01-03T00:19:00Z,27.1996,-90.2793,446.6,9.2,11113222
BP,ioos:station:wmo:42369:2,2021-01-03T00:39:00Z,27.1997,-90.2791,446.6,9.1,11113222
BP,ioos:station:wmo:42369:2,2021-01-03T00:59:00Z,27.1997,-90.2789,446.1,9.2,11113222
BP,ioos:station:wmo:42369:2,2021-01-03T01:19:00Z,27.1998,-90.2788,446.4,9.1,11113222
BP,ioos:station:wmo:42369:2,2021-01-03T01:39:00Z,27.1999,-90.2788,446.7,9.1,11113222
BP,ioos:station:wmo:42369:2,2021-01-03T01:59:00Z,27.2000,-90.2788,446.3,9.1,11113222
BP,ioos:station:wmo:42369:2,2021-01-03T02:19:00Z,27.1999,-90.2789,446.5,9.1,11113222
BP,ioos:station:wmo:42369:2,2021-01-03T02:39:00Z,27.1999,-90.2787,446.5,9.0,11113222
BP,ioos:station:wmo:42369:2,2021-01-03T02:59:00Z,27.1998,-90.2787,447.4,9.0,11113222
BP,ioos:station:wmo:42369:2,2021-01-03T03:19:00Z,27.1998,-90.2787,446.6,9.0,11113222
BP,ioos:station:wmo:42369:2,2021-01-03T03:39:00Z,27.1997,-90.2787,446.7,9.0,11113222
BP,ioos:station:wmo:42369:2,2021-01-03T03:59:00Z,27.1997,-90.2788,446.8,9.0,11113222
BP,ioos:station:wmo:42369:2,2021-01-03T04:19:00Z,27.1996,-90.2789,447.3,9.0,11113222
BP,ioos:station:wmo:42369:2,2021-01-03T04:39:00Z,27.1996,-90.2789,446.9,8.9,11113222
BP,ioos:station:wmo:42369:2,2021-01-03T04:59:00Z,27.1996,-90.2790,447.3,8.8,11113222
BP,ioos:station:wmo:42369:2,2021-01-03T05:19:00Z,27.1995,-90.2791,447.3,8.8,11113222
BP,ioos:station:wmo:42369:2,2021-01-03T05:39:00Z,27.1995,-90.2793,446.6,8.8,11113222
BP,ioos:station:wmo:42369:2,2021-01-03T05:59:00Z,27.1994,-90.2795,447.3,8.8,11113222
BP,ioos:station:wmo:42369:2,2021-01-03T06:19:00Z,27.1993,-90.2796,446.8,8.8,11113222
BP,ioos:station:wmo:42369:2,2021-01-03T06:39:00Z,27.1993,-90.2796,446.2,8.8,11113222
BP,ioos:station:wmo:42369:2,2021-01-03T06:59:00Z,27.1992,-90.2797,447.4,8.8,11113222
BP,ioos:station:wmo:42369:2,2021-01-03T07:19:00Z,27.1992,-90.2798,447.3,8.8,11113222
BP,ioos:station:wmo:42369:2,2021-01-03T07:39:00Z,27.1992,-90.2800,447.0,8.8,11113222
BP,ioos:station:wmo:42369:2,2021-01-03T07:59:00Z,27.1991,-90.2802,446.8,8.8,11113222
BP,ioos:station:wmo:42369:2,2021-01-03T08:19:00Z,27.1991,-90.2803,447.4,8.8,11113222
BP,ioos:station:wmo:42369:2,2021-01-03T08:39:00Z,27.1991,-90.2803,447.0,8.9,11113222
BP,ioos:station:wmo:42369:2,2021-01-03T08:59:00Z,27.1991,-90.2803,446.6,8.9,11113222
BP,ioos:station:wmo:42369:2,2021-01-03T09:19:00Z,27.1991,-90.2805,446.2,9.0,11113222
BP,ioos:station:wmo:42369:2,2021-01-03T09:39:00Z,27.1991,-90.2806,446.9,9.1,11113222
BP,ioos:station:wmo:42369:2,2021-01-03T09:59:00Z,27.1991,-90.2807,446.8,9.1,11113222
BP,ioos:station:wmo:42369:2,2021-01-03T10:19:00Z,27.1991,-90.2808,446.7,9.1,11113222
BP,ioos:station:wmo:42369:2,2021-01-03T10:39:00Z,27.1991,-90.2809,446.2,9.2,11113222
BP,ioos:station:wmo:42369:2,2021-01-03T10:59:00Z,27.1991,-90.2811,446.8,9.2,11113222
BP,ioos:station:wmo:42369:2,2021-01-03T11:19:00Z,27.1991,-90.2811,446.9,9.1,11113222
BP,ioos:station:wmo:42369:2,2021-01-03T11:39:00Z,27.1990,-90.2811,446.8,9.1,11113222
BP,ioos:station:wmo:42369:2,2021-01-03T11:59:00Z,27.1990,-90.2812,447.4,9.2,11113222
BP,ioos:station:wmo:42369:2,2021-01-03T12:19:00Z,27.1991,-90.2815,446.6,9.1,11113222
BP,ioos:station:wmo:42369:2,2021-01-03T12:39:00Z,27.1991,-90.2816,446.7,9.1,11113222
BP,ioos:station:wmo:42369:2,2021-01-03T12:59:00Z,27.1991,-90.2817,446.6,9.2,11113222
BP,ioos:station:wmo:42369:2,2021-01-03T13:19:00Z,27.1991,-90.2819,447.1,9.1,11113222
BP,ioos:station:wmo:42369:2,2021-01-03T13:39:00Z,27.1990,-90.2821,446.4,9.2,11113222
BP,ioos:station:wmo:42369:2,2021-01-03T13:59:00Z,27.1991,-90.2821,446.4,9.2,11113222
BP,ioos:station:wmo:42369:2,2021-01-03T14:19:00Z,27.1991,-90.2821,445.9,9.3,11113222
BP,ioos:station:wmo:42369:2,2021-01-03T14:39:00Z,27.1991,-90.2821,445.7,9.3,11113222
BP,ioos:station:wmo:42369:2,2021-01-03T14:59:00Z,27.1991,-90.2822,446.1,9.4,11113222
BP,ioos:station:wmo:42369:2,2021-01-03T15:19:00Z,27.1991,-90.2821,445.6,9.3,11113222
BP,ioos:station:wmo:42369:2,2021-01-03T15:39:00Z,27.1990,-90.2820,445.8,9.4,11113222
BP,ioos:station:wmo:42369:2,2021-01-03T15:59:00Z,27.1991,-90.2819,446.5,9.4,11113222
BP,ioos:station:wmo:42369:2,2021-01-03T16:19:00Z,27.1992,-90.2819,445.2,9.4,11113222
BP,ioos:station:wmo:42369:2,2021-01-03T16:39:00Z,27.1992,-90.2818,445.9,9.3,11113222
BP,ioos:station:wmo:42369:2,2021-01-03T16:59:00Z,27.1991,-90.2817,445.8,9.2,11113222
BP,ioos:station:wmo:42369:2,2021-01-03T17:19:00Z,27.1991,-90.2817,446.6,9.1,11113222
BP,ioos:station:wmo:42369:2,2021-01-03T17:39:00Z,27.1992,-90.2816,446.6,9.1,11113222
BP,ioos:station:wmo:42369:2,2021-01-03T17:59:00Z,27.1992,-90.2816,446.1,9.0,11113222
BP,ioos:station:wmo:42369:2,2021-01-03T18:19:00Z,27.1992,-90.2816,446.1,9.1,11113222
BP,ioos:station:wmo:42369:2,2021-01-03T18:39:00Z,27.1992,-90.2816,445.9,9.1,11113222
BP,ioos:station:wmo:42369:2,2021-01-03T18:59:00Z,27.1992,-90.2816,445.9,9.1,11113222
BP,ioos:station:wmo:42369:2,2021-01-03T19:19:00Z,27.1992,-90.2815,445.8,9.1,11113222
BP,ioos:station:wmo:42369:2,2021-01-03T19:39:00Z,27.1992,-90.2816,446.6,9.1,11113222
BP,ioos:station:wmo:42369:2,2021-01-03T19:59:00Z,27.1992,-90.2817,445.6,9.1,11113222
BP,ioos:station:wmo:42369:2,2021-01-03T20:19:00Z,27.1993,-90.2820,446.2,9.1,11113222
BP,ioos:station:wmo:42369:2,2021-01-03T20:39:00Z,27.1993,-90.2823,446.6,9.1,11113222
BP,ioos:station:wmo:42369:2,2021-01-03T20:59:00Z,27.1993,-90.2826,446.1,9.1,11113222
BP,ioos:station:wmo:42369:2,2021-01-03T21:19:00Z,27.1993,-90.2830,445.9,9.1,11113222
BP,ioos:station:wmo:42369:2,2021-01-03T21:39:00Z,27.1994,-90.2832,446.1,9.1,11113222
BP,ioos:station:wmo:42369:2,2021-01-03T21:59:00Z,27.1995,-90.2834,446.3,9.2,11113222
BP,ioos:station:wmo:42369:2,2021-01-03T22:19:00Z,27.1996,-90.2835,445.6,9.1,11113222
BP,ioos:station:wmo:42369:2,2021-01-03T22:39:00Z,27.1996,-90.2836,446.0,9.1,11113222
BP,ioos:station:wmo:42369:2,2021-01-03T22:59:00Z,27.1997,-90.2834,446.3,9.1,11113222
BP,ioos:station:wmo:42369:2,2021-01-03T23:19:00Z,27.1998,-90.2832,446.4,9.1,11113222
BP,ioos:station:wmo:42369:2,2021-01-03T23:39:00Z,27.1999,-90.2829,446.1,9.1,11113222
BP,ioos:station:wmo:42369:2,2021-01-03T23:59:00Z,27.1992,-90.2819,446.5,9.0,11113222
BP,ioos:station:wmo:42369:2,2021-01-04T00:19:00Z,27.2003,-90.2823,446.0,9.0,11113222
BP,ioos:station:wmo:42369:2,2021-01-04T00:39:00Z,27.2004,-90.2818,446.1,9.0,11113222
BP,ioos:station:wmo:42369:2,2021-01-04T00:59:00Z,27.2004,-90.2811,446.1,8.9,11113222
BP,ioos:station:wmo:42369:2,2021-01-04T01:19:00Z,27.2006,-90.2805,446.4,9.0,11113222
BP,ioos:station:wmo:42369:2,2021-01-04T01:39:00Z,27.2008,-90.2798,445.9,9.0,11113222
BP,ioos:station:wmo:42369:2,2021-01-04T01:59:00Z,27.2010,-90.2791,445.7,9.0,11113222
BP,ioos:station:wmo:42369:2,2021-01-04T02:19:00Z,27.2013,-90.2786,445.7,8.9,11113222
BP,ioos:station:wmo:42369:2,2021-01-04T02:39:00Z,27.2015,-90.2781,446.3,8.9,11113222
BP,ioos:station:wmo:42369:2,2021-01-04T02:59:00Z,27.2017,-90.2778,446.4,8.8,11113222
BP,ioos:station:wmo:42369:2,2021-01-04T03:19:00Z,27.2018,-90.2774,446.1,8.7,11113222
BP,ioos:station:wmo:42369:2,2021-01-04T03:39:00Z,27.2020,-90.2772,446.4,8.8,11113222
BP,ioos:station:wmo:42369:2,2021-01-04T03:59:00Z,27.2020,-90.2770,446.2,8.8,11113222
BP,ioos:station:wmo:42369:2,2021-01-04T04:19:00Z,27.2021,-90.2769,445.7,8.8,11113222
BP,ioos:station:wmo:42369:2,2021-01-04T04:39:00Z,27.2020,-90.2769,446.2,8.8,11113222
BP,ioos:station:wmo:42369:2,2021-01-04T04:59:00Z,27.2019,-90.2769,445.8,8.8,11113222
BP,ioos:station:wmo:42369:2,2021-01-04T05:19:00Z,27.2018,-90.2770,445.7,8.8,11113222
BP,ioos:station:wmo:42369:2,2021-01-04T05:39:00Z,27.2018,-90.2771,446.3,8.8,11113222
BP,ioos:station:wmo:42369:2,2021-01-04T05:59:00Z,27.2017,-90.2772,445.8,8.8,11113222
BP,ioos:station:wmo:42369:2,2021-01-04T06:19:00Z,27.2017,-90.2772,446.2,8.8,11113222
BP,ioos:station:wmo:42369:2,2021-01-04T06:39:00Z,27.2016,-90.2773,445.3,8.8,11113222
BP,ioos:station:wmo:42369:2,2021-01-04T06:59:00Z,27.2014,-90.2775,445.4,8.8,11113222
BP,ioos:station:wmo:42369:2,2021-01-04T07:19:00Z,27.2014,-90.2775,445.8,8.8,11113222
BP,ioos:station:wmo:42369:2,2021-01-04T07:39:00Z,27.2013,-90.2777,445.5,8.8,11113222
BP,ioos:station:wmo:42369:2,2021-01-04T07:59:00Z,27.2013,-90.2777,446.0,8.8,11113222
BP,ioos:station:wmo:42369:2,2021-01-04T08:19:00Z,27.2012,-90.2778,445.7,8.8,11113222
BP,ioos:station:wmo:42369:2,2021-01-04T08:39:00Z,27.2012,-90.2778,446.0,8.8,11113222
BP,ioos:station:wmo:42369:2,2021-01-04T08:59:00Z,27.2012,-90.2778,445.3,8.8,11113222
BP,ioos:station:wmo:42369:2,2021-01-04T09:19:00Z,27.2013,-90.2777,446.0,8.8,11113222
BP,ioos:station:wmo:42369:2,2021-01-04T09:39:00Z,27.2013,-90.2776,445.5,8.8,11113222
BP,ioos:station:wmo:42369:2,2021-01-04T09:59:00Z,27.2015,-90.2775,444.8,8.8,11113222
BP,ioos:station:wmo:42369:2,2021-01-04T10:19:00Z,27.2016,-90.2774,445.7,8.8,11113222
BP,ioos:station:wmo:42369:2,2021-01-04T10:39:00Z,27.2016,-90.2774,445.1,8.8,11113222
BP,ioos:station:wmo:42369:2,2021-01-04T10:59:00Z,27.2017,-90.2773,445.5,8.8,11113222
BP,ioos:station:wmo:42369:2,2021-01-04T11:19:00Z,27.2016,-90.2772,445.0,8.9,11113222
BP,ioos:station:wmo:42369:2,2021-01-04T11:39:00Z,27.2017,-90.2772,445.1,8.8,11113222
BP,ioos:station:wmo:42369:2,2021-01-04T11:59:00Z,27.2017,-90.2772,445.1,8.9,11113222
BP,ioos:station:wmo:42369:2,2021-01-04T12:19:00Z,27.2017,-90.2772,445.1,8.9,11113222
BP,ioos:station:wmo:42369:2,2021-01-04T12:39:00Z,27.2017,-90.2773,445.4,8.9,11113222
BP,ioos:station:wmo:42369:2,2021-01-04T12:59:00Z,27.2016,-90.2774,445.4,9.0,11113222
BP,ioos:station:wmo:42369:2,2021-01-04T13:19:00Z,27.2016,-90.2774,445.6,9.0,11113222
BP,ioos:station:wmo:42369:2,2021-01-04T13:39:00Z,27.2016,-90.2776,445.0,8.9,11113222
BP,ioos:station:wmo:42369:2,2021-01-04T13:59:00Z,27.2014,-90.2777,445.0,9.2,11113222
BP,ioos:station:wmo:42369:2,2021-01-04T14:19:00Z,27.2013,-90.2778,444.5,9.2,11113222
BP,ioos:station:wmo:42369:2,2021-01-04T14:39:00Z,27.2013,-90.2778,445.0,9.2,11113222
BP,ioos:station:wmo:42369:2,2021-01-04T15:19:00Z,27.2015,-90.2776,444.5,9.3,11113222
BP,ioos:station:wmo:42369:2,2021-01-04T15:39:00Z,27.2017,-90.2776,445.6,9.2,11113222
BP,ioos:station:wmo:42369:2,2021-01-04T15:59:00Z,27.2018,-90.2775,444.9,9.2,11113222
BP,ioos:station:wmo:42369:2,2021-01-04T16:19:00Z,27.2021,-90.2774,445.0,9.2,11113222
BP,ioos:station:wmo:42369:2,2021-01-04T16:39:00Z,27.2022,-90.2773,445.6,9.1,11113222
BP,ioos:station:wmo:42369:2,2021-01-04T16:59:00Z,27.2025,-90.2771,445.1,9.1,11113222
BP,ioos:station:wmo:42369:2,2021-01-04T17:19:00Z,27.2026,-90.2769,444.8,9.1,11113222
BP,ioos:station:wmo:42369:2,2021-01-04T17:39:00Z,27.2028,-90.2768,444.7,9.1,11113222
BP,ioos:station:wmo:42369:2,2021-01-04T17:59:00Z,27.2030,-90.2767,445.7,9.1,11113222
BP,ioos:station:wmo:42369:2,2021-01-04T18:19:00Z,27.2032,-90.2766,444.6,9.1,11113222
BP,ioos:station:wmo:42369:2,2021-01-04T18:39:00Z,27.2035,-90.2765,444.9,8.9,11113222
BP,ioos:station:wmo:42369:2,2021-01-04T18:59:00Z,27.2037,-90.2763,445.1,8.9,11113222
BP,ioos:station:wmo:42369:2,2021-01-04T19:19:00Z,27.2040,-90.2762,444.9,8.8,11113222
BP,ioos:station:wmo:42369:2,2021-01-04T19:39:00Z,27.2043,-90.2760,445.0,8.8,11113222
BP,ioos:station:wmo:42369:2,2021-01-04T19:59:00Z,27.2045,-90.2759,445.3,8.9,11113222
BP,ioos:station:wmo:42369:2,2021-01-04T20:19:00Z,27.2047,-90.2759,445.3,8.8,11113222
BP,ioos:station:wmo:42369:2,2021-01-04T20:39:00Z,27.2048,-90.2758,445.4,8.9,11113222
BP,ioos:station:wmo:42369:2,2021-01-04T20:59:00Z,27.2049,-90.2758,445.0,8.9,11113222